Regional Weather Roundup
Issued by NWS

Home | Current Version | Previous Version | Graphics & Text | Print | Product List | Glossary On
Versions: 1 2 3 4 5 6 7 8 9 10 11 12 13 14 15 16 17 18 19 20 21 22 23 24 25 26 27 28 29 30 31 32 33 34 35 36 37 38 39 40 41 42 43 44 45 46 47 48 49 50
000
ASUS45 KTFX 310204
RWRMT
MONTANA HOURLY WEATHER ROUNDUP
NATIONAL WEATHER SERVICE GREAT FALLS MT
804 PM MDT WED JUL 30 2014

NOTE: "FAIR" INDICATES FEW OR NO CLOUDS BELOW 12000 FEET WITH NO
SIGNIFICANT WEATHER AND/OR OBSTRUCTIONS TO VISIBILITY.

* THESE STATIONS ARE NOT UNDER NWS QUALITY CONTROL. THEY DO NOT
   REPORT WEATHER SUCH AS PRECIPITATION OR FOG.

MTZ001>007-043-310300-
WEST OF THE DIVIDE
CITY           SKY/WX    TMP DP  RH WIND       PRES   REMARKS
KALISPELL      MOCLDY    75  61  62 N6        30.05R
MISSOULA       PTCLDY    90  39  17 W8        30.07S
BUTTE          CLOUDY    75  43  32 N5        30.28R
MULLAN PASS    CLEAR     73  34  24 VRB7      30.29S
* LINCOLN      N/A       80  55  42 S1         N/A   HI  80
* LOOKOUT PASS N/A       78  41  27 S1         N/A
* POLSON       N/A       78  47  34 W1         N/A
* RONAN APT    PTCLDY    86  50  29 N/A        N/A
* SEELEY LAKE  N/A       87  37  17 N8G23      N/A
* THOMP F APT  PTCLDY    64  44  48 N10G21     N/A
* YAAK HILL    N/A       99  48  18 N/A        N/A
$$

MTZ008-052>055-310300-
SOUTHWEST MONTANA
CITY           SKY/WX    TMP DP  RH WIND       PRES   REMARKS
BOZEMAN        CLOUDY    79  43  28 W12       30.17R
DILLON         CLOUDY    73  43  34 SE28      30.25R
W YELLOWSTONE  MOCLDY    70  39  32 SW7       30.33R
* THREE FORKS  CLOUDY    81  48  32 N/A        N/A
* BOULDER HILL N/A       72  41  33 SE6        N/A
* MONIDA PASS  N/A       54  52  93 NE8G17     N/A
* RAYNOLDS PAS N/A       65  63  93 N7G12      N/A
* WHITEHALL    N/A       82  44  26 N5G19      N/A
* WISE RIVER   N/A       74  39  28 SE7        N/A
$$

MTZ009>010-012-014-046-048-049-054-310300-
EAST SLOPES AND CENTRAL MONTANA
CITY           SKY/WX    TMP DP  RH WIND       PRES   REMARKS
CUT BANK       MOCLDY    77  48  36 NW8       30.11S
GREAT FALLS    CLOUDY    82  43  25 W14G20    30.09R
HELENA         MOCLDY    84  43  24 SW7       30.12R
MALMSTROM AFB  MOCLDY    88  36  16 W6        30.08S
* CONRAD       CLOUDY    82  55  40 N/A        N/A   HI  81
* DEARBORN     N/A       69  55  61 NE12G17    N/A
* EAST GLACIER N/A       74  52  46 VRB4       N/A
* MONARCH      N/A       77  38  25 NE7G16     N/A
* PENDROY      N/A       77  51  40 SW16G21    N/A
* ROGERS PASS  N/A       73  43  34 N/A        N/A
* SAINT MARY   N/A       81  49  33 N5         N/A
* SWEET GRASS  N/A       81  45  28 NW8        N/A
$$

MTZ011-013-016-021-035-040-045-047-050-051-310300-
NORTH CENTRAL MONTANA
CITY           SKY/WX    TMP DP  RH WIND       PRES   REMARKS
HAVRE          MOCLDY    91  36  14 E6        30.01R
LEWISTOWN      PTCLDY    81  39  22 SE7       30.15R
* CHESTER      N/A       88  38  17 NW6G12     N/A
* DENTON       N/A       84  40  21 SW7        N/A
* GEYSER       N/A       83  45  26 SE10G19    N/A
* JUDITH GAP   N/A       81  41  24 SE9        N/A
* LOMA         N/A       90  38  16 SE9G17     N/A
$$

MTZ017>020-022>027-061-062-310300-
NORTHEAST MONTANA
CITY           SKY/WX    TMP DP  RH WIND       PRES   REMARKS
GLASGOW        CLEAR     84  43  24 SE7       30.05S
GLENDIVE       CLEAR     82  50  33 NE7       30.13S
JORDAN         CLEAR     88  39  18 SE13      30.08S
SIDNEY         CLEAR     79  52  39 NE7       30.12S
WOLF POINT     CLEAR     84  52  33 E8        30.07S
* BEAVER HILL  N/A       78  51  39 NE6        N/A
* CIRCLE       N/A       86  54  33 N/A        N/A
* LINDSAY DVD  N/A       80  51  36 NE5        N/A
$$

MTZ028>042-056>058-310300-
SOUTHCENTRAL AND SOUTHEAST MONTANA
CITY           SKY/WX    TMP DP  RH WIND       PRES   REMARKS
BAKER          FAIR      79  50  36 E7        30.16S
BILLINGS       MOCLDY    84  36  18 E10       30.14S
LIVINGSTON     CLOUDY    81  34  18 E10       30.16R
MILES CITY     CLEAR     84  45  26 E3        30.11S
* LAUREL APT   PTCLDY    82  43  25 N/A        N/A
* ROUNDUP APT  PTCLDY    88  37  16 N/A        N/A
* ALZADA       N/A       77  43  30 NE4        N/A
* HYSHAM       N/A       83  42  23 SE9        N/A
* LAME DEER    N/A       79  37  22 E4         N/A
* REED POINT   N/A       82  42  24 E6         N/A
* ROSCOE HILL  N/A       76  31  19 E15G20     N/A
$$

REGIONAL REPORTS...DAKOTAS
CITY           SKY/WX    TMP DP  RH WIND       PRES   REMARKS
WILLISTON      CLEAR     79  50  36 E7        30.12S
DICKINSON      CLEAR     73  57  57 NE5       30.13R
CROSBY         CLEAR     72  59  64 CALM      30.13R
TIOGA          CLEAR     68  59  73 E5        30.16F
BISMARCK       CLEAR     73  57  57 NE6       30.10S
GRAND FORKS    PTCLDY    72  63  73 N3        30.03S
FARGO          FAIR      73  55  53 W5        30.04S
BUFFALO SD     CLEAR     73  52  48 E8        30.10S
RAPID CITY     PTCLDY    70  52  53 N8        30.15S
$$

REGIONAL REPORTS...WYOMING/IDAHO/WASHINGTON
CITY           SKY/WX    TMP DP  RH WIND       PRES   REMARKS
GILLETTE       MOCLDY    73  41  32 E5        30.22R
SHERIDAN       CLOUDY    73  52  48 SW5       30.19S
YELLOWSTONE LA MOCLDY    63  46  54 CALM      30.44S
SALMON         CLOUDY    77  45  32 S5        30.13R
MULLAN PASS    CLEAR     73  34  24 VRB7      30.29S
SAND POINT     CLEAR     86  59  40 CALM      29.97F HI  85
SPOKANE        PTCLDY    97  36  12 SW10      29.99F
$$

REGIONAL REPORTS...ALBERTA
CITY           SKY/WX    TMP DP  RH WIND       PRES   REMARKS
CALGARY        TSTM      77  55  47 W8        30.09F

$$



USA.gov is the U.S. government's official web portal to all federal, state and local government web resources and services.